Regional Weather Roundup
Issued by NWS

Home | Current Version | Previous Version | Text Only | Print | Product List | Glossary On
Versions: 1 2 3 4 5 6 7 8 9 10 11 12 13 14 15 16 17 18 19 20 21 22 23 24 25 26 27 28 29 30 31 32 33 34 35 36 37 38 39 40 41 42 43 44 45 46 47 48 49 50
000
ASUS44 KFWD 031615
RWRTX
NORTH TEXAS HOURLY WEATHER ROUNDUP
NATIONAL WEATHER SERVICE FORT WORTH TX
1100 AM CDT THU SEP 03 2015

NOTE: "FAIR" INDICATES FEW OR NO CLOUDS BELOW 12,000 FEET WITH NO
SIGNIFICANT WEATHER AND/OR OBSTRUCTIONS TO VISIBILITY.

TXZ118-119-031700-
DALLAS/FORT WORTH METROPLEX

CITY           SKY/WX    TMP DP  RH WIND       PRES   REMARKS
DFW AIRPORT    MOSUNNY   86  66  51 S6        29.99R
DALLAS LOVE    MOSUNNY   86  67  52 S8        29.99S
FTW MEACHAM    SUNNY     86  68  54 S7        29.99R
DAL-EXECUTIVE  SUNNY     85  67  54 VRB3      29.99S
FTW-ALLIANCE   MOSUNNY   85  68  56 S7        29.99S
FTW-NAS-JRB    MOSUNNY   87  69  54 VRB3      30.00R HX  91
FTW-SPINKS     MOSUNNY   84  68  58 S5        30.01R
ARLINGTON      SUNNY     85  68  56 CALM      29.99S
GRAND PRAIRIE  SUNNY     84  70  61 CALM      30.00F
ADDISON        MOSUNNY   84  66  54 S9        30.00S
MESQUITE       SUNNY     84  68  58 SE5       29.99F
LANCASTER      SUNNY     85  65  50 SE7       30.00S
$$

TXZ091>094-102>105-117-120-121-131>134-031700-
NORTH CENTRAL TEXAS

CITY           SKY/WX    TMP DP  RH WIND       PRES   REMARKS
SHRMAN/DENISON SUNNY     88  68  52 S9        30.02R HX  91
GAINESVILLE    SUNNY     85  66  52 S9        30.02R
BOWIE          SUNNY     86  64  48 S7G17     30.01S
BRIDGEPORT     SUNNY     86  67  53 S9        30.02S
DECATUR        SUNNY     84  64  50 S9        30.02R
DENTON         SUNNY     86  68  54 S8        30.00R
MCKINNEY       SUNNY     86  67  52 MISG      30.00S
GREENVILLE     SUNNY     88  63  42 S8        30.00S
ROCKWALL       SUNNY     86  68  56 SE6       29.99S
TERRELL        SUNNY     85  67  54 SE8       30.00S
WAXAHACHIE     SUNNY     85  70  60 SE7       30.00F
CLEBURNE       SUNNY     82  72  69 VRB5      30.02S
GRANBURY       SUNNY     86  67  53 E8        30.01S
$$

TXZ083>090-098>101-113>116-127>130-139>142-154-155-031700-
WESTERN NORTH TEXAS

CITY           SKY/WX    TMP DP  RH WIND       PRES   REMARKS
WICHITA FALLS  MOSUNNY   86  65  49 S14       29.98S
WF-KICKAPOO    MOSUNNY   88  63  43 S12       30.00S
VERNON         SUNNY     87  58  38 S15       29.98S
ABILENE        SUNNY     84  66  54 S14       30.03R
ABILENE-DYESS  SUNNY     85  67  54 S9        30.01R
BRECKENRIDGE   SUNNY     87  62  41 S10       30.00S HAZE
GRAHAM         SUNNY     88  65  45 S8        29.99R
MINERAL WELLS  SUNNY     84  67  56 S6        29.99R
STEPHENVILLE   SUNNY     83  67  58 SE6       30.04S
COMANCHE       SUNNY     86  65  50 SE7       30.01F
BROWNWOOD      SUNNY     82  66  57 E5        30.02S
COLEMAN        SUNNY     84  67  56 S7        30.03S
BRADY          SUNNY     84  66  54 SE5       30.02R
$$

TXZ143>147-156>162-174-175-031700-
CENTRAL TEXAS

CITY           SKY/WX    TMP DP  RH WIND       PRES   REMARKS
WACO           MOSUNNY   84  70  62 S5        29.99S
WACO-TSTC      PTSUNNY   82  72  69 CALM      29.99S
WACO-MCGREGOR  MOSUNNY   84  71  65 SE5       29.99S
HILLSBORO      MOSUNNY   83  69  63 SE3       30.00S
CORSICANA      MOSUNNY   84  70  62 VRB6      30.00F
MEXIA          MOSUNNY   82  71  69 E9G17     29.99S
HEARNE         PTSUNNY   82  73  72 E3        29.99F
CAMERON        CLOUDY    83  71  67 SE6       29.98S
TEMPLE         PTSUNNY   82  68  61 CALM      29.99S
KILLEEN        MOSUNNY   82  69  64 SE5       29.99S
KILLEEN-SKYLRK MOSUNNY   82  66  57 SE5       29.99S
FORT HOOD      MOSUNNY   82  69  64 VRB2      29.98S
GATESVILLE     MOSUNNY   81  70  69 S3        30.02S
HAMILTON       SUNNY     84  65  52 S7        30.02S
$$

TXZ095>097-106>112-122>126-135>138-148>153-164>167-031700-
EAST TEXAS

CITY           SKY/WX    TMP DP  RH WIND       PRES   REMARKS
PARIS          SUNNY     86  64  48 SW5       30.01F
SULPHUR SPRNGS SUNNY     87  65  48 SE5       30.02F
MOUNT PLEASANT SUNNY     86  65  50 SE7       30.02F
GILMER         SUNNY     82  70  68 E6        30.01S
MINEOLA        SUNNY     84  70  61 SE3       30.01F
TYLER          MOSUNNY   83  70  64 S7        30.01S
LONGVIEW       MOSUNNY   82  71  69 E6        30.01S
MARSHALL       PTSUNNY   82  73  72 CALM      30.04S
ATHENS         PTSUNNY   79  70  73 SE3       30.00R
PALESTINE      PTSUNNY   82  71  70 SE5       30.01S
JACKSONVILLE   PTSUNNY   82  70  67 SE6       30.04R
HENDERSON      PTSUNNY   83  70  65 SE12G17   30.02S
CENTER         FAIR      85  72  64 SE5       30.01S HX  91
NACOGDOCHES    PTSUNNY   79  73  83 SE6       30.01S
LUFKIN         PTSUNNY   84  72  67 VRB7      30.00S
$$

SUPPLEMENTAL OBSERVATIONS (CENTRAL)

CITY           SKY/WX    TMP DP  RH WIND       PRES   REMARKS
LAKE TEXOMA      N/A     86  64  48 S5          N/A
CADDO GRASSLND   N/A     88  68  51 S6          N/A  HX  91
PAT MAYSE LAKE   N/A     82  68  61 S2          N/A
GREENVILLE       N/A     88  64  45 S7          N/A
CEDAR HILL       N/A     90  64  43 E3          N/A  HX  91
LAKE LIMESTONE   N/A     84  70  61 SE3         N/A
MCGREGOR         N/A     84  68  58 S9          N/A
TEMPLE           N/A     84  70  61 SE5         N/A
$$

SUPPLEMENTAL OBSERVATIONS (WEST)

CITY           SKY/WX    TMP DP  RH WIND       PRES   REMARKS
MILLERS CREEK    N/A     88  66  48 SW14        N/A  HX  90
POSSUM KINGDOM   N/A     90  66  45 S10         N/A  HX  92
LBJ GRASSLAND    N/A     86  68  54 S9          N/A
GRANBURY         N/A     86  66  51 SE8G16      N/A
COMANCHE         N/A     86  66  51 SE8         N/A
HAMBY            N/A     84  64  51 S12         N/A
IVIE RESERVOIR   N/A     88  66  48 SW6         N/A  HX  90
COLORADO BEND    N/A     84  66  54 S6          N/A
$$

SUPPLEMENTAL OBSERVATIONS (EAST)

CITY           SKY/WX    TMP DP  RH WIND       PRES   REMARKS
CLARKSVILLE      N/A     90  66  45 SE3         N/A  HX  92
TEXARKANA        N/A     88  68  51 S2          N/A  HX  91
LINDEN           N/A     88  66  48 SE3         N/A  HX  90
GILMER           N/A     84  70  61 E5          N/A
HENDERSON        N/A     84  70  61 S7G15       N/A
LUFKIN           N/A     84  72  65 MISG        N/A
N SABINE NF      N/A     90  75  62 MISG        N/A  HX 100
S SABINE NF      N/A     84  70  61 E5          N/A
$$

SUPPLEMENTAL OBSERVATIONS ARE A COLLECTION OF AUTOMATED INSTRUMENTS
THAT ARE MAINTAINED BY A VARIETY OF FEDERAL AND STATE AGENCIES.
CERTAIN ELEMENTS...SUCH AS HUMIDITY VALUES AND SUSTAINED WIND
SPEEDS...MAY BE APPROXIMATED.



USA.gov is the U.S. government's official web portal to all federal, state and local government web resources and services.